SCP
0 0 0 0 0 0 0 0 0 0 0 0 0 0 0 0 0 0 0 0 0 0 0 0 0 0 0 0 0 1 1 1 0 0 0 0 0 0 0 0 0 0 0 0
0 0 0 0 0 0 0 0 0 0 0 0 0 0 0 0 0 0 0 0 0 0 0 0 0 0 0 0 0 0 1 1 1 0 0 0 0 0 0 0 0 0 0 0
0 0 0 0 0 0 0 0 0 0 0 0 0 0 0 0 0 0 0 0 0 0 0 0 0 0 0 0 0 0 0 1 1 0 0 0 0 0 0 0 0 0 0 0
0 0 0 0 0 0 0 0 0 0 0 0 0 0 0 0 0 0 0 0 0 0 0 0 0 0 0 0 0 0 0 0 0 0 0 0 0 0 0 0 0 0 0 0
0 0 0 0 0 0 0 0 0 0 0 0 0 0 0 0 0 0 0 0 0 0 0 0 0 0 0 0 0 0 0 0 0 0 0 0 0 0 0 0 0 0 0 0
0 0 0 0 0 0 -0 -0 0 0 0 0 0 0 0 0 0 0 0 0 0 0 0 0 0 0 0 0 0 0 0 0 0 0 0 0 0 0 0 0 0 0 0 0
0 0 0 0 0 0 -0 -0 0 0 0 0 0 0 0 0 0 0 0 0 0 0 0 0 0 0 0 0 0 0 0 0 0 0 0 0 0 0 0 0 0 0 0 0
0 0 0 0 0 0 0 0 0 0 0 0 0 0 0 0 0 0 0 0 0 0 0 0 0 0 0 0 0 0 0 0 0 0 0 0 0 0 0 0 0 0 0 0
0 0 0 0 0 0 0 0 0 0 0 0 0 0 0 0 0 0 0 0 0 0 0 0 0 0 0 0 0 0 0 0 0 0 0 0 0 0 0 0 0 0 0 0
0 0 0 0 0 0 0 0 0 0 0 0 0 0 0 0 0 0 0 0 0 0 0 0 0 0 0 0 0 0 0 0 0 0 0 0 0 0 0 0 0 0 0 0
0 0 0 0 0 0 0 0 0 0 0 0 0 0 0 0 0 0 0 0 0 0 0 0 0 0 0 0 0 0 0 0 0 0 0 0 0 0 0 0 0 0 0 0
0 0 0 0 0 0 0 0 0 0 0 0 0 0 0 0 0 0 0 0 0 0 0 0 0 0 0 0 0 0 0 0 0 0 0 0 0 0 0 0 0 0 0 0
0 0 0 0 0 0 0 0 0 -0 0 0 0 0 0 0 0 0 0 0 0 0 0 0 0 0 0 0 0 0 0 0 0 0 0 0 0 0 0 0 0 0 0 0
0 0 0 0 0 0 0 0 0 0 0 0 0 0 0 0 0 0 0 0 0 0 0 0 0 0 0 0 0 0 0 0 0 0 0 0 0 0 0 0 0 0 0 0
0 0 0 0 0 0 0 0 0 0 0 0 0 0 0 0 0 0 0 0 0 0 0 0 0 0 0 0 0 0 0 0 0 0 0 0 0 0 0 0 0 0 0 0
0 0 0 0 0 0 0 0 0 0 0 0 0 0 0 0 0 0 0 0 0 0 0 0 0 0 0 0 0 0 0 0 0 0 0 0 0 0 0 0 0 0 0 0
0 0 0 0 0 0 0 0 0 0 0 0 0 0 0 0 0 0 0 0 0 0 0 0 0 0 0 0 0 0 0 0 0 0 0 0 0 0 0 0 0 0 0 0
0 0 0 0 0 0 0 0 0 0 0 0 0 0 0 0 0 0 0 0 0 0 0 0 0 0 0 0 0 0 0 0 0 0 0 0 0 0 0 0 0 0 0 0
0 0 0 0 0 0 0 0 0 0 0 0 0 0 0 0 0 0 0 0 0 0 0 0 0 0 0 0 0 0 0 0 0 0 0 0 0 0 0 0 0 0 0 0
0 0 0 0 0 0 0 0 0 0 0 0 0 0 0 0 0 0 0 0 0 0 0 0 0 0 0 0 0 0 0 0 0 0 0 0 0 0 0 0 0 0 0 0
0 0 0 0 0 0 0 0 0 0 0 0 0 0 0 0 0 0 0 0 0 0 0 0 0 0 0 0 0 0 0 0 0 0 0 0 0 0 0 0 0 0 0 0
0 0 0 0 0 0 0 0 0 0 0 0 0 0 0 0 -0 -0 -0 0 0 0 0 0 0 0 0 0 0 0 0 0 0 0 0 0 0 0 0 0 0 0 0 0
0 0 0 0 0 0 0 0 0 0 0 0 0 0 0 0 0 0 -0 0 0 0 0 0 0 0 0 0 0 0 0 0 0 0 0 0 0 0 0 0 0 0 0 0
0 0 0 0 0 0 0 0 0 0 0 0 0 0 0 0 0 0 -0 0 0 0 0 0 0 0 0 0 0 0 0 0 0 0 0 0 0 0 0 0 0 0 0 0
0 0 0 0 0 0 -0 -0 -0 -0 0 0 0 0 0 0 0 0 0 0 0 0 0 0 0 0 0 0 0 0 0 0 0 0 0 0 0 0 0 0 0 0 0 0
0 0 0 0 0 -0 -0 -0 -0 -0 0 0 0 0 0 0 0 0 0 0 0 0 0 0 0 0 0 0 0 0 0 0 0 0 0 0 0 0 0 0 0 0 0 0
Wind_Speed
2 2 5 5 5 3 4 4 5 4 2 4 6 6 6 3 2 4 4 4 5 5 4 2 2 2 3 4 5 6 6 6 5 4 4 4 4 4 4 4 6 7 6 7
2 3 4 3 3 4 5 4 4 2 1 3 3 6 6 5 5 6 6 7 7 5 3 3 2 2 3 4 5 6 6 6 6 5 4 3 3 3 4 4 4 5 6 6
4 2 4 4 4 5 5 6 5 4 2 1 1 5 6 6 5 5 7 7 6 7 7 5 4 3 3 3 5 5 6 5 5 5 3 2 2 2 2 2 3 4 5 6
1 1 4 5 4 5 4 4 5 5 5 1 3 4 7 6 7 9 9 8 9 8 7 5 5 4 4 4 3 4 4 4 4 5 5 5 5 4 4 3 3 3 4 4
2 2 5 6 5 5 3 3 3 3 4 1 1 3 8 3 7 11 11 10 10 9 8 7 6 5 4 3 3 3 3 3 3 4 5 5 4 3 2 2 3 3 2 3
1 1 3 3 2 3 3 4 4 3 3 3 6 5 8 6 9 7 8 9 9 8 8 6 4 4 3 2 2 3 3 2 2 3 3 4 5 4 3 3 3 2 2 2
1 1 1 3 4 3 4 5 3 2 3 5 4 6 10 8 7 7 8 7 6 6 7 7 7 6 5 3 3 3 4 3 2 3 2 3 3 3 4 3 3 2 2 2
2 2 3 3 4 5 5 4 4 5 5 2 3 8 9 6 5 5 6 5 4 5 6 7 7 6 5 4 4 3 3 3 2 3 2 2 2 2 2 2 2 2 2 2
4 2 1 2 3 5 6 4 2 4 2 1 5 6 9 3 4 3 3 2 3 4 5 6 6 5 5 4 4 4 4 3 3 2 3 2 2 2 2 1 1 1 0 0
3 2 1 2 3 1 3 5 4 4 4 3 4 5 5 5 5 3 2 3 3 3 4 5 5 4 4 4 3 4 4 3 2 2 2 3 3 2 2 2 2 1 1 1
2 3 2 2 4 6 4 3 3 3 3 4 3 6 5 5 5 4 4 3 4 5 5 4 4 4 4 4 4 4 3 3 3 3 3 4 3 3 3 3 3 2 2 2
2 2 2 2 1 3 4 5 6 4 3 3 2 7 4 4 4 4 4 3 3 4 4 4 4 4 4 4 3 3 3 3 3 3 3 4 3 4 4 4 4 3 3 3
4 3 3 1 1 3 4 4 4 3 3 3 4 7 4 2 1 1 3 3 3 4 4 4 4 4 4 3 3 3 2 3 3 3 4 4 4 4 4 4 4 4 4 4
4 2 4 6 4 5 5 6 7 6 4 5 7 7 6 4 2 1 2 4 4 4 4 4 4 3 3 3 3 3 2 2 3 4 4 4 3 3 3 4 4 4 4 5
2 1 2 3 2 3 5 7 9 9 8 7 6 7 9 6 5 4 4 4 4 4 5 5 5 4 4 3 3 3 3 3 3 4 4 3 3 4 4 4 4 4 4 5
1 1 1 2 1 3 3 6 8 9 8 9 8 11 7 4 3 3 5 6 7 7 7 6 6 5 5 5 4 4 4 3 4 4 4 4 4 4 4 4 4 4 5 4
2 1 0 2 2 1 5 7 9 7 7 8 11 11 5 4 6 7 7 7 8 8 7 8 8 7 7 6 6 6 5 4 4 4 4 4 4 4 4 4 4 4 4 4
2 1 1 0 1 4 6 2 5 7 7 8 7 6 5 7 6 4 5 7 8 7 6 7 6 6 5 5 5 5 5 5 5 4 4 4 4 4 4 4 4 4 3 4
5 3 1 1 2 5 6 2 3 4 5 5 8 7 5 2 0 2 3 5 6 6 5 4 5 5 5 5 6 6 5 5 5 5 5 5 5 5 5 4 4 3 4 3
2 2 2 2 2 4 4 3 1 2 4 3 3 4 3 3 1 4 1 2 2 2 3 4 4 4 5 5 6 6 6 6 6 6 5 5 5 5 5 5 4 3 3 3
1 1 3 4 3 6 5 4 1 1 4 3 1 2 2 4 3 1 2 2 2 3 3 4 4 4 4 5 6 6 6 6 5 5 5 5 5 5 5 4 4 4 4 4
2 2 3 3 4 6 3 1 2 4 2 2 1 1 2 2 2 2 3 3 3 3 3 3 3 3 3 5 6 6 6 5 5 5 5 5 5 5 5 5 4 4 5 4
2 3 3 4 5 3 1 2 2 1 1 1 1 1 2 2 2 2 2 2 2 2 2 2 3 3 3 4 5 6 5 5 6 6 5 5 5 4 5 5 5 4 4 3
3 1 1 3 4 4 3 2 2 2 1 2 1 1 2 2 1 2 1 1 1 0 1 1 2 2 3 4 4 5 5 6 6 6 5 5 5 5 4 4 4 4 4 4
5 3 3 4 4 4 3 2 2 2 2 2 3 2 2 2 1 1 0 0 0 1 1 2 2 3 3 3 4 5 6 7 7 6 5 5 5 5 5 4 4 5 4 5
3 3 3 4 4 3 4 3 2 1 2 2 1 2 2 2 1 1 1 1 1 1 1 1 2 3 3 3 4 5 6 7 7 6 6 5 5 4 4 4 3 6 6 8
Wind_Direction
125 144 188 194 207 220 158 157 175 194 219 179 211 235 255 267 232 225 229 231 240 250 262 259 235 199 176 172 174 182 182 178 170 171 177 182 195 193 194 198 199 198 197 196
111 209 194 182 216 209 180 172 181 186 203 183 219 249 256 251 233 224 224 228 230 242 261 253 237 198 187 182 177 176 182 178 180 186 179 173 168 185 194 196 200 202 202 200
158 183 158 176 203 190 196 185 180 164 87 46 98 286 257 258 245 241 231 227 227 223 229 232 225 212 191 193 188 184 184 183 185 180 155 130 125 120 159 193 202 206 205 205
169 186 163 175 203 182 201 192 181 161 137 215 176 251 266 240 252 244 238 230 231 228 220 215 213 208 202 203 189 183 180 178 181 174 170 173 183 194 197 192 196 201 203 204
194 166 163 189 206 181 177 159 162 155 133 107 197 223 276 238 241 243 237 230 228 221 212 206 202 197 193 185 174 170 159 161 166 170 181 183 193 200 185 172 180 198 207 208
211 192 182 185 169 180 132 101 81 76 106 222 205 194 268 229 221 239 238 231 223 212 204 195 181 162 156 142 135 137 136 136 143 154 163 178 188 187 181 187 192 202 210 212
122 214 200 151 133 147 132 133 135 148 183 237 185 198 248 243 230 229 239 239 227 203 188 180 171 167 159 148 136 128 128 127 122 127 140 164 176 177 188 195 201 202 211 222
149 220 201 176 172 162 167 156 163 173 190 237 191 226 251 255 264 258 251 246 221 198 186 177 172 162 154 144 131 123 121 116 103 113 121 120 137 154 171 182 182 195 216 232
167 200 137 149 141 143 151 183 162 117 116 176 241 274 295 259 274 274 263 228 207 190 176 163 152 147 143 137 130 127 119 107 95 100 105 94 96 115 130 131 140 159 228 249
151 146 127 120 113 68 147 143 123 141 157 219 260 257 251 262 259 266 249 222 198 163 150 143 139 137 131 124 112 103 107 109 100 93 93 93 80 84 93 93 85 78 54 50
144 143 125 140 184 176 147 155 154 147 164 169 236 263 230 237 248 244 241 215 183 165 154 144 134 127 119 110 106 105 104 102 96 91 88 87 78 75 78 76 66 58 49 49
166 128 151 207 229 179 173 177 160 165 201 182 198 268 291 266 256 224 217 199 176 162 148 140 136 128 122 119 114 112 110 108 107 104 98 91 83 78 75 69 59 61 60 54
155 137 122 87 187 173 193 188 177 148 139 174 193 264 316 342 342 189 186 186 176 159 146 140 142 147 147 141 135 129 122 118 111 108 103 93 85 82 78 72 64 62 63 60
145 153 183 195 207 176 187 191 182 170 194 215 226 258 294 298 289 232 195 187 179 176 169 167 171 174 168 160 157 151 141 129 123 115 111 103 96 92 88 79 72 67 69 69
110 198 234 249 227 178 194 197 193 203 207 213 240 244 258 257 245 228 205 189 181 187 189 189 189 187 180 174 170 162 152 140 132 126 121 118 108 99 92 85 79 75 75 76
23 236 252 300 243 201 231 221 210 219 221 233 252 263 255 247 224 217 207 196 199 205 205 200 195 189 190 188 182 172 165 156 141 138 136 128 119 111 104 100 94 87 81 78
318 212 164 295 322 27 266 227 208 208 209 203 231 247 243 233 224 219 213 206 209 213 207 202 200 198 196 191 182 180 172 154 147 147 142 138 134 127 123 119 106 98 90 86
218 189 175 231 65 244 251 243 203 214 234 223 237 250 236 232 234 227 211 205 214 216 208 203 196 192 185 173 167 160 153 154 155 154 152 151 147 140 135 127 120 113 103 97
198 187 180 168 235 282 300 283 184 195 263 236 235 250 252 236 15 288 229 206 212 208 198 192 181 171 161 164 162 154 156 159 162 168 169 165 160 155 151 146 139 125 116 108
170 170 178 190 218 254 271 303 234 137 295 300 230 242 234 141 172 264 241 172 163 144 142 145 139 138 152 161 155 157 166 170 180 180 175 167 164 163 161 155 144 132 129 126
141 193 208 219 242 268 274 291 104 154 269 313 285 240 175 177 208 252 78 75 90 96 105 121 132 146 162 157 156 167 175 188 184 167 161 161 163 162 158 148 142 139 135 130
204 197 206 196 227 261 307 81 167 231 281 338 356 36 129 135 75 68 69 79 86 89 98 117 132 145 153 161 164 175 190 183 159 157 160 161 160 162 156 149 146 146 146 145
235 218 218 207 225 264 292 244 287 297 320 336 14 38 101 102 84 73 70 70 69 88 108 124 144 151 166 177 177 187 188 163 158 160 164 163 159 159 157 160 160 158 161 163
296 306 272 284 285 295 306 314 341 4 356 354 29 64 91 100 100 86 79 68 59 69 155 152 156 178 197 196 195 194 174 163 163 169 170 166 165 166 166 171 173 175 180 182
275 301 285 275 290 309 314 329 341 11 27 27 26 38 63 91 88 115 129 240 247 262 218 184 196 212 218 203 201 189 174 166 171 175 174 173 175 174 176 182 192 192 199 194
231 224 246 264 282 278 285 308 330 351 353 350 7 18 29 48 24 356 293 274 264 263 244 230 227 228 227 211 206 193 181 175 175 180 182 181 179 178 178 181 197 215 210 217